Weather Roundup
Issued by NWS Corpus Christi, TX

Home | Current Version | Previous Version | Text Only | Print | Product List | Glossary On
Versions: 1 2 3 4 5 6 7 8 9 10 11 12 13 14 15 16 17 18 19 20 21 22 23 24 25 26 27 28 29 30 31 32 33 34 35 36 37 38 39 40 41 42 43 44 45 46 47 48 49 50
000
ASUS44 KCRP 261110
HRRCRP

SOUTH TEXAS REGIONAL WEATHER ROUNDUP
NATIONAL WEATHER SERVICE CORPUS CHRISTI TX
600 AM CDT TUE MAY 26 2015


TXZ229>244-261200-
...CORPUS CHRISTI AREA OBSERVATIONS...

CITY           SKY/WX    TMP DP  RH WIND       PRES   REMARKS
CORPUS CHRISTI MOCLDY    79  75  87 SE15      29.88F
NAS CORPUS CHR MOCLDY    79  76  90 SE15      29.89S FOG
ROCKPORT       CLEAR     80  75  84 SE14      29.90R
KINGSVILLE NAS CLOUDY    80  79  96 SE15      29.88S FOG
ALICE          CLOUDY    79  76  90 SE13      29.88R FOG
FALFURRIAS     CLOUDY    79  76  91 SE9       29.88S
$$

...VICTORIA AREA OBSERVATIONS...

CITY           SKY/WX    TMP DP  RH WIND       PRES   REMARKS
VICTORIA       CLOUDY    71  70  96 N5        29.94R
BEEVILLE       CLOUDY    76  76 100 SE7       29.89R FOG
PLEASANTON     CLOUDY    72  69  90 NE3       29.92R
SAN ANTONIO    CLOUDY    73  68  84 E5        29.95R
$$

...LAREDO AREA OBSERVATIONS...

CITY           SKY/WX    TMP DP  RH WIND       PRES   REMARKS
LAREDO         CLOUDY    78  75  90 SE12      29.88R
COTULLA        CLOUDY    78  74  87 VRB7      29.89R FOG
DEL RIO        CLOUDY    76  73  91 E7        29.89R
MCALLEN        CLOUDY    82  77  84 SE10      29.88R HX  90
HEBBRONVILLE     N/A     77  75  92 SE12      29.89S FOG
$$

...OTHER TEXAS OBSERVATIONS...

CITY           SKY/WX    TMP DP  RH WIND       PRES   REMARKS
BROWNSVILLE    CLOUDY    80  77  90 SE14      29.88R
HOUSTON        CLOUDY    68  66  93 NW3       29.97R
COL. STATION   CLOUDY    67  65  93 SE5       29.95R
AUSTIN         PTCLDY    64  64 100 NE3       29.96R
WACO           CLOUDY    65  64  97 SE9       29.95R FOG
FORT WORTH     DRIZZLE   61  61 100 S8        29.93F
WICHITA FALLS  PTCLDY    58  57  97 S10       29.94R
LUBBOCK        PTCLDY    55  52  89 SW8       29.94R
EL PASO        CLEAR     64  38  38 N6        30.03R
$$

...MARINE OBSERVATIONS...

STATION/POSITION TIME  SKY/WX   TEMP    WIND        PRES    VSBY  WAVE   SWELL
                                AIR SEA DIR/SP/G                  HT/PER HT/PER
                 (UTC)          (F)     (DEG/KT/KT) (MB)    (MI)  (FT/S) (FT/S)
PORT ARANSAS     1100            80 81  130/ 19/ 23 1012.5R
BUOY 90 E PORT A 1050            80 80  120/ 16/ 17 1014.4R         6/ 7
BUOY 45 SE BAFFI 1050            80 80  130/ 17/ 21 1011.9R         7/ 8   5/ 8
BUOY 200 E PT IS 1050            82 81  120/ 16/ 17 1015.0R         6/ 6   3/11
BUOY 15 E GALVES 1050            74 80   50/ 16/ 17 1015.2R         4/ 7   3/ 7
$$


USA.gov is the U.S. government's official web portal to all federal, state and local government web resources and services.